Rockwall, TX

1:39 AM CDT on August 23, 2017 (GMT -0500)
Rockwall

Weather History for KF46 - March, 2013

Change the Weather History Date:

Thursday, March 7, 2013

  Actual Average (KDFW) Record (KDFW)
Temperature  
Mean Temperature 54 °F -  
Max Temperature 69 °F 61 °F 90 °F (1911)
Min Temperature 40 °F 42 °F 20 °F (1989)
Degree Days  
Heating Degree Days 10    
Growing Degree Days 4 (Base 50)    
Moisture  
Dew Point 27 °F    
Average Humidity 36    
Maximum Humidity 51    
Minimum Humidity 22    
Precipitation  
Precipitation 0.03 in - - ()
Sea Level Pressure  
Sea Level Pressure 30.17 in    
Wind  
Wind Speed 8 mph (SSE)    
Max Wind Speed 18 mph    
Max Gust Speed 28 mph    
Visibility 10 miles    
Events      
Averages and records for this station are not official NWS values.
T = Trace of Precipitation, MM = Missing Value Source: NWS Daily Summary

Daily Weather History Graph

Daily Weather History Graph

Search for Another Location

Airport or City:

Trip Planner

Search our weather history database for the weather conditions in past years. The results will help you decide how hot, cold, wet, or windy it might be!

Date:

Astronomy

Mar. 07, 2013 Rise Set
Actual Time 6:45 AM CST 6:27 PM CST
Civil Twilight 6:21 AM CST 6:52 PM CST
Nautical Twilight 5:52 AM CST 7:21 PM CST
Astronomical Twilight 5:24 AM CST 7:49 PM CST
Moon 3:35 AM CST (3/7) 2:27 PM CST (3/7)
Length of Visible Light 12h 31m
Length of Day
11h 41m
Waning Crescent, 20% of the Moon is Illuminated
Mar 7
Waning Crescent
Mar 11
New
Mar 19
First Quarter
Mar 27
Full
Apr 2
Last Quarter

Hourly Weather History & Observations

Time (CST) Temp. Windchill Dew Point Humidity Pressure Visibility Wind Dir Wind Speed Gust Speed Precip Events Conditions
12:15 AM 44.6 °F 41.4 °F 19.8 °F 37% 30.20 in 10.0 mi SSE 5.8 mph - N/A   Clear
12:35 AM 44.6 °F 42.2 °F 20.1 °F 38% 30.20 in 10.0 mi SE 4.6 mph - N/A   Clear
12:55 AM 45.0 °F 41.8 °F 20.3 °F 38% 30.19 in 10.0 mi SE 5.8 mph - N/A   Clear
1:15 AM 45.5 °F 41.8 °F 20.3 °F 37% 30.19 in 10.0 mi SSE 6.9 mph - N/A   Clear
1:35 AM 44.6 °F 41.4 °F 21.0 °F 39% 30.19 in 10.0 mi SE 5.8 mph - N/A   Clear
1:55 AM 44.2 °F 41.0 °F 20.8 °F 39% 30.19 in 10.0 mi SE 5.8 mph - N/A   Clear
2:15 AM 43.9 °F 41.3 °F 20.7 °F 40% 30.19 in 10.0 mi SE 4.6 mph - N/A   Clear
2:35 AM 43.7 °F 41.1 °F 20.8 °F 40% 30.19 in 10.0 mi SSE 4.6 mph - N/A   Clear
2:55 AM 43.7 °F 39.7 °F 20.8 °F 40% 30.18 in 10.0 mi SE 6.9 mph - N/A   Clear
3:15 AM 43.2 °F 39.0 °F 21.0 °F 41% 30.18 in 10.0 mi SE 6.9 mph - N/A   Clear
3:35 AM 42.3 °F 38.6 °F 21.6 °F 44% 30.18 in 10.0 mi SE 5.8 mph - N/A   Clear
3:55 AM 42.4 °F 38.8 °F 21.2 °F 43% 30.18 in 10.0 mi SE 5.8 mph - N/A   Clear
4:15 AM 41.9 °F 38.2 °F 21.7 °F 45% 30.18 in 10.0 mi ESE 5.8 mph - N/A   Clear
4:35 AM 41.7 °F 37.3 °F 21.7 °F 45% 30.18 in 10.0 mi SE 6.9 mph - N/A   Clear
4:55 AM 43.2 °F 37.9 °F 21.6 °F 42% 30.19 in 10.0 mi SE 9.2 mph - N/A   Clear
5:15 AM 43.3 °F 38.6 °F 21.7 °F 42% 30.19 in 10.0 mi SE 8.1 mph - N/A   Clear
5:35 AM 42.1 °F 37.7 °F 22.3 °F 45% 30.20 in 10.0 mi SE 6.9 mph - N/A   Clear
5:55 AM 42.1 °F 37.1 °F 22.6 °F 46% 30.19 in 10.0 mi SE 8.1 mph - N/A   Clear
6:15 AM 41.9 °F 36.9 °F 22.8 °F 47% 30.20 in 10.0 mi SE 8.1 mph - N/A   Clear
6:35 AM 40.8 °F 36.9 °F 23.0 °F 49% 30.21 in 10.0 mi SE 5.8 mph - N/A   Clear
6:55 AM 41.7 °F 36.1 °F 23.4 °F 48% 30.21 in 10.0 mi SE 9.2 mph - N/A   Clear
7:15 AM 41.0 °F 37.1 °F 23.9 °F 51% 30.22 in 10.0 mi ESE 5.8 mph - N/A   Clear
7:35 AM 41.5 °F 37.1 °F 24.8 °F 51% 30.22 in 10.0 mi SE 6.9 mph - N/A   Clear
7:55 AM 44.6 °F 41.4 °F 24.8 °F 46% 30.23 in 10.0 mi SE 5.8 mph - N/A   Clear
8:15 AM 46.6 °F - 26.1 °F 45% 30.24 in 10.0 mi SE 8.1 mph - N/A   Clear
8:35 AM 49.5 °F - 27.3 °F 42% 30.24 in 10.0 mi SSE 6.9 mph - N/A   Clear
8:55 AM 52.2 °F - 28.4 °F 40% 30.24 in 10.0 mi SSE 8.1 mph - N/A   Clear
9:15 AM 54.0 °F - 28.4 °F 37% 30.24 in 10.0 mi SSE 9.2 mph - N/A   Clear
9:35 AM 56.1 °F - 29.7 °F 36% 30.24 in 10.0 mi South 9.2 mph - N/A   Clear
9:55 AM 57.4 °F - 29.3 °F 34% 30.24 in 10.0 mi South 9.2 mph - N/A   Clear
10:15 AM 59.4 °F - 30.9 °F 34% 30.24 in 10.0 mi South 10.4 mph 16.1 mph N/A   Clear
10:35 AM 60.8 °F - 30.9 °F 32% 30.24 in 10.0 mi South 13.8 mph 20.7 mph N/A   Clear
10:55 AM 62.6 °F - 31.5 °F 31% 30.24 in 10.0 mi South 13.8 mph 17.3 mph N/A   Clear
11:15 AM 63.5 °F - 29.1 °F 27% 30.23 in 10.0 mi SSW 18.4 mph 21.9 mph N/A   Clear
11:35 AM 64.2 °F - 30.0 °F 28% 30.23 in 10.0 mi South 15.0 mph 19.6 mph N/A   Clear
11:55 AM 64.8 °F - 29.3 °F 26% 30.22 in 10.0 mi SSW 15.0 mph 27.6 mph N/A   Clear
12:15 PM 65.5 °F - 29.1 °F 26% 30.21 in 10.0 mi South 16.1 mph 23.0 mph N/A   Clear
12:35 PM 66.7 °F - 29.1 °F 24% 30.20 in 10.0 mi South 16.1 mph 25.3 mph N/A   Clear
12:55 PM 66.2 °F - 30.4 °F 26% 30.18 in 10.0 mi South 18.4 mph 21.9 mph N/A   Clear
1:15 PM 67.5 °F - 31.1 °F 26% 30.17 in 10.0 mi SSW 17.3 mph 21.9 mph N/A   Clear
1:35 PM 67.5 °F - 32.2 °F 27% 30.16 in 10.0 mi South 10.4 mph 24.2 mph N/A   Clear
1:55 PM 68.4 °F - 30.7 °F 25% 30.15 in 10.0 mi South 12.7 mph 24.2 mph N/A   Clear
2:15 PM 68.9 °F - 29.8 °F 23% 30.14 in - South 16.1 mph 25.3 mph 0.03 in   Clear
2:35 PM 68.7 °F - 28.4 °F 22% 30.14 in 10.0 mi SSE 13.8 mph 24.2 mph 0.03 in   Clear
2:55 PM 69.1 °F - 28.2 °F 22% 30.13 in 10.0 mi South 13.8 mph 23.0 mph 0.03 in   Clear
3:15 PM 69.3 °F - 28.4 °F 22% 30.13 in 10.0 mi SSE 12.7 mph 20.7 mph N/A   Clear
3:35 PM 69.6 °F - 29.7 °F 23% 30.12 in 10.0 mi SSE 13.8 mph 24.2 mph N/A   Clear
3:55 PM 68.9 °F - 30.4 °F 24% 30.12 in 10.0 mi SSE 13.8 mph 19.6 mph N/A   Clear
4:15 PM 68.5 °F - 30.7 °F 25% 30.11 in 10.0 mi SSE 10.4 mph 17.3 mph N/A   Clear
4:35 PM 68.2 °F - 30.7 °F 25% 30.11 in 10.0 mi SSE 11.5 mph 18.4 mph N/A   Clear
4:55 PM 68.2 °F - 28.8 °F 23% 30.11 in 10.0 mi SSE 11.5 mph 17.3 mph N/A   Clear
5:15 PM 67.6 °F - 28.6 °F 23% 30.10 in 10.0 mi SSE 13.8 mph 19.6 mph N/A   Clear
5:35 PM 67.1 °F - 27.5 °F 23% 30.11 in 10.0 mi SSE 11.5 mph 19.6 mph N/A   Clear
5:55 PM 65.8 °F - 30.0 °F 26% 30.10 in 10.0 mi SSE 5.8 mph - N/A   Clear
7:35 PM 59.2 °F - 27.3 °F 30% 30.13 in 10.0 mi SSE 6.9 mph - N/A   Clear
7:55 PM 59.4 °F - 29.1 °F 32% 30.13 in 10.0 mi South 8.1 mph - N/A   Clear
8:15 PM 59.5 °F - 30.2 °F 33% 30.13 in 10.0 mi SSE 6.9 mph - N/A   Clear
8:35 PM 58.8 °F - 30.9 °F 35% 30.14 in 10.0 mi SE 5.8 mph - N/A   Clear
8:55 PM 57.2 °F - 31.8 °F 38% 30.14 in 10.0 mi SE 5.8 mph - N/A   Clear
9:15 PM 55.9 °F - 32.0 °F 40% 30.14 in 10.0 mi SE 8.1 mph - N/A   Clear
9:35 PM 55.6 °F - 32.0 °F 41% 30.13 in 10.0 mi SE 8.1 mph - N/A   Clear
9:55 PM 55.9 °F - 31.6 °F 40% 30.13 in 10.0 mi SE 6.9 mph - N/A   Clear
10:15 PM 56.3 °F - 32.0 °F 40% 30.13 in 10.0 mi SE 6.9 mph - N/A   Clear
10:35 PM 55.9 °F - 32.0 °F 40% 30.13 in 10.0 mi SE 8.1 mph - N/A   Clear
10:55 PM 56.3 °F - 32.4 °F 40% 30.13 in 10.0 mi SE 9.2 mph - N/A   Clear
11:15 PM 56.8 °F - 32.7 °F 40% 30.13 in 10.0 mi SE 9.2 mph - N/A   Clear
11:35 PM 56.1 °F - 33.1 °F 42% 30.13 in 10.0 mi SE 10.4 mph - N/A   Clear
11:55 PM 55.6 °F - 33.6 °F 44% 30.13 in 10.0 mi SE 9.2 mph 16.1 mph N/A   Clear